Regional Weather Roundup
Issued by NWS

Home | Current Version | Previous Version | Graphics & Text | Print | Product List | Glossary On
Versions: 1 2 3 4 5 6 7 8 9 10 11 12 13 14 15 16 17 18 19 20 21 22 23 24 25 26 27 28 29 30 31 32 33 34 35 36 37 38 39 40 41 42 43 44 45 46 47 48 49 50
000
ASUS43 KMKX 302311
RWRWI

WISCONSIN REGIONAL WEATHER ROUNDUP
NATIONAL WEATHER SERVICE MILWAUKEE/SULLIVAN WI
600 PM CDT MON MAY 30 2016

NOTE: "FAIR" INDICATES FEW OR NO CLOUDS BELOW 12,000 FEET WITH NO
SIGNIFICANT WEATHER AND/OR OBSTRUCTIONS TO VISIBILITY.

WIZ001-002-006>008-014>016-023>028-310000-
NORTHWEST WISCONSIN

CITY           SKY/WX    TMP DP  RH WIND       PRES   REMARKS
SUPERIOR ARPT  CLOUDY    71  50  46 N6        29.91S
ASHLAND        MOSUNNY   78  52  40 NE10      29.93S
HAYWARD        CLOUDY    77  52  41 SW7       29.95S
SIREN          CLOUDY    81  49  33 S8        29.93S HX  80
CUMBERLAND     SUNNY     77  48  36 S7        29.95S
RICE LAKE      SUNNY     80  48  32 S6        29.96S
CHETEK         SUNNY     80  53  39 SW6       29.95S HX  80
LADYSMITH      MOSUNNY   79  49  34 CALM      29.97F
EAU CLAIRE     MOSUNNY   81  51  35 SW8       29.94F HX  80
MENOMONIE      SUNNY     83  49  30 S3        29.94F HX  81
NEW RICHMOND   SUNNY     80  51  36 SW8       29.94F
OSCEOLA        SUNNY     82  49  32 S6        29.95F HX  80
$$

WIZ003>005-009-010-017-018-310000-
NORTH CENTRAL WISCONSIN

CITY           SKY/WX    TMP DP  RH WIND       PRES   REMARKS
MANITOWISH WTR NOT AVBL
ARBOR VITAE    MOSUNNY   77  45  32 N3        29.98S
WOODRUFF       MOSUNNY   77  45  32 N3        29.98S
RHINELANDER    CLOUDY    75  45  34 CALM      29.98F
EAGLE RIVER      N/A     74  38  27 NW6       29.97S
LAND O LAKES   SUNNY     76  39  25 W9        29.98S
PHILLIPS       SUNNY     76  53  43 S7        29.96S
TOMAHAWK       MOSUNNY   76  48  37 W5        29.97F
MEDFORD        SUNNY     76  51  41 CALM      29.97F
MERRILL        MOSUNNY   78  50  37 NW3       29.98S
$$

WIZ029-030-035-036-043>047-310000-
CENTRAL WISCONSIN

CITY           SKY/WX    TMP DP  RH WIND       PRES   REMARKS
WAUSAU         SUNNY     79  49  34 VRB5      29.96F
MOSINEE        NOT AVBL
MARSHFIELD     SUNNY     79  50  36 NW6       29.97F
STEVENS POINT  SUNNY     77  46  34 W8        29.98F
WAUPACA        SUNNY     82  46  29 NW5       29.97S HX  80
WAUTOMA        SUNNY     81  47  30 VRB3      29.97S HX  80
WISC RAPIDS    SUNNY     82  45  27 N7        29.98F HX  80
CAMP DOUGLAS   SUNNY     81  52  36 E1        29.96F HX  80
$$

WIZ011>013-019>022-031-037>040-048>050-310000-
NORTHEAST WISCONSIN

CITY           SKY/WX    TMP DP  RH WIND       PRES   REMARKS
ANTIGO         SUNNY     74  53  47 CALM      29.98F
SHAWANO        SUNNY     81  46  29 W6        29.96S HX  80
OCONTO         SUNNY     80  48  32 NW5       29.94S
STURGEON BAY   NOT AVBL
GREEN BAY      SUNNY     81  50  33 NW5       29.96F HX  80
MANITOWOC      SUNNY     72  56  57 S9        29.98S
APPLETON       MOSUNNY   79  45  29 VRB5      29.96F
CLINTONVILLE   SUNNY     79  43  27 NW7       29.96F
OSHKOSH        SUNNY     80  47  31 NW5       29.97S
$$

WIZ032>034-041-042-053>061-310000-
SOUTHWEST WISCONSIN

CITY           SKY/WX    TMP DP  RH WIND       PRES   REMARKS
LA CROSSE      SUNNY     82  47  29 SW7       29.94F HX  80
SPARTA         SUNNY     81  48  30 W5        29.96F HX  80
VIROQUA        SUNNY     81  45  28 S6        29.97F
BOSCOBEL       SUNNY     83  47  28 VRB5      29.95F HX  81
PRAIRIE DU CHI SUNNY     82  43  25 CALM      29.95F HX  80
PLATTEVILLE    SUNNY     81  46  28 CALM      29.98F HX  80
$$

WIZ056-057-062-063-064-067-068-310000-
SOUTH CENTRAL WISCONSIN

CITY           SKY/WX    TMP DP  RH WIND       PRES   REMARKS
REEDSBURG      SUNNY     79  51  37 CALM      29.97S
BARABOO/DELLS  SUNNY     81  42  24 W3        29.97S HX  80
LONE ROCK      SUNNY     84  49  29 CALM      29.96F HX  82
MINERAL POINT  SUNNY     81  43  26 CALM      29.99F HAZE
MADISON        MOSUNNY   82  49  31 VRB3      29.97S HX  81
MIDDLETON      SUNNY     82  45  27 CALM      29.99S HX  80
WATERTOWN      SUNNY     79  53  40 N7        29.98R
MONROE         SUNNY     81  41  24 CALM      29.98S
JANESVILLE     MOSUNNY   82  46  28 N6        29.97S HX  81
$$

WIZ051-052-058>065-066-070>072-310000-
SOUTHEAST WISCONSIN

CITY           SKY/WX    TMP DP  RH WIND       PRES   REMARKS
MILWAUKEE      MOSUNNY   72  58  61 SE8       29.98S
WAUKESHA       SUNNY     79  48  34 NW12      29.99S
MILWAUKEE/TIMM SUNNY     75  54  46 SE9       29.99S
RACINE         SUNNY     72  57  59 SE7       30.00S
BURLINGTON     SUNNY     80  44  28 NW5       29.97S
KENOSHA        SUNNY     75  57  53 E10       29.98S
FOND DU LAC    SUNNY     80  51  36 CALM      29.97F HX  80
SHEBOYGAN      SUNNY     74  57  55 S8        29.98S
WEST BEND      SUNNY     77  55  47 E7        29.98S
JUNEAU         SUNNY     78  51  38 E3        29.99S
$$

LSZ147-162-310000-
LAKE SUPERIOR

STATION/POSITION TIME  TEMP    WIND        PRES    WAVE
                       AIR SEA DIR/SP/G            HT/PER
                 (UTC) (F)     (DEG/KT/KT) (MB)    (FT/S)
W MID LAKE BUOY  2250   50 38  220/  6/  6 1014.3F   1
DEVILS ISLAND    2300   69      60/  3/  4 1013.6F
SAXON HARBOR     2200   71      70/  9/ 10 1013.5F
$$

LMZ867-665-643>646-310000-
LAKE MICHIGAN

STATION/POSITION TIME  TEMP    WIND        PRES    WAVE
                       AIR SEA DIR/SP/G            HT/PER
                 (UTC) (F)     (DEG/KT/KT) (MB)    (FT/S)
CHAMBERS ISLAND  2200   76     180/  3/  8 1013.9F
N MID LAKE BUOY  2250   53 50  200/ 10/ 10 1013.8F   1
NORTHPORT PIER   2200   69     150/  5/ 10 1013.9F
KEWAUNEE LAKESHO 2200   58                   N/A
SHEBOYGAN LAKESH 2300   67     180/ 15/ 15 1015.3S
PORT WASHINGTON  2240   66     180/  3/  4 1016.3S
S MID LAKE BUOY  2250   61 59   70/  6/  6 1015.0F   0
KENOSHA   LAKESH 2300   65     130/  2/  4 1014.9S
$$

TC  - TEMPERATURE IN CELSIUS
VSB - VISIBILITY IN STATUTE MILES
WCI - WIND CHILL INDEX
HX  - HEAT INDEX





USA.gov is the U.S. government's official web portal to all federal, state and local government web resources and services.